Massena, NY

4:24 AM EDT on March 28, 2017 (GMT -0400)
Massena International-Richards

Weather History for KMSS - January, 2012

Change the Weather History Date:

Tuesday, January 17, 2012

  Actual Average Record
Temperature  
Mean Temperature 28 °F 14 °F  
Max Temperature 41 °F 24 °F 51 °F (1990)
Min Temperature 15 °F 4 °F -34 °F (1974)
Degree Days  
Heating Degree Days 37 51  
Month to date heating degree days 797 854  
Since 1 July heating degree days 3149 3953  
Cooling Degree Days 0 0  
Month to date cooling degree days 0  
Year to date cooling degree days 0  
Moisture  
Dew Point 24 °F    
Average Humidity 88    
Maximum Humidity 96    
Minimum Humidity 79    
Precipitation  
Precipitation 0.31 in 0.07 in 0.31 in (2012)
Month to date precipitation 1.47 1.26  
Year to date precipitation 1.47 1.26  
Sea Level Pressure  
Sea Level Pressure 29.62 in    
Wind  
Wind Speed 9 mph (ENE)    
Max Wind Speed 46 mph    
Max Gust Speed 63 mph    
Visibility 2 miles    
Events Fog , Rain , Snow    
T = Trace of Precipitation, MM = Missing Value Source: NWS Daily Summary

Daily Weather History Graph

Daily Weather History Graph

Search for Another Location

Airport or City:

Trip Planner

Search our weather history database for the weather conditions in past years. The results will help you decide how hot, cold, wet, or windy it might be!

Date:

Astronomy

Jan. 17, 2012 Rise Set
Actual Time 7:32 AM EST 4:46 PM EST
Civil Twilight 7:00 AM EST 5:18 PM EST
Nautical Twilight 6:24 AM EST 5:54 PM EST
Astronomical Twilight 5:49 AM EST 6:30 PM EST
Moon 1:47 AM EST (1/17) 11:38 AM EST (1/17)
Length of Visible Light 10h 18m
Length of Day
9h 13m
Waning Crescent, 35% of the Moon is Illuminated
Jan 17
Waning Crescent
Jan 23
New
Jan 30
First Quarter
Feb 7
Full
Feb 14
Last Quarter

Hourly Weather History & Observations

Time (EST) Temp. Windchill Dew Point Humidity Pressure Visibility Wind Dir Wind Speed Gust Speed Precip Events Conditions
12:21 AM 15.8 °F 10.2 °F 12.2 °F 86% 29.91 in 8.0 mi ENE 3.5 mph - N/A   Overcast
12:53 AM 16.0 °F 10.4 °F 12.9 °F 88% 29.93 in 7.0 mi East 3.5 mph - N/A   Overcast
1:53 AM 17.6 °F 12.3 °F 14.0 °F 86% 29.89 in 7.0 mi NE 3.5 mph - N/A   Overcast
2:53 AM 19.0 °F - 15.1 °F 85% 29.91 in 6.0 mi Calm Calm - N/A   Overcast
3:32 AM 19.4 °F - 15.8 °F 86% 29.88 in 4.0 mi Calm Calm - 0.00 in Snow Light Snow
3:53 AM 19.0 °F 13.9 °F 16.0 °F 88% 29.90 in 5.0 mi East 3.5 mph - 0.00 in   Overcast
4:03 AM 19.4 °F - 15.8 °F 86% 29.87 in 4.0 mi Calm Calm - 0.00 in Snow Light Snow
4:14 AM 19.4 °F - 15.8 °F 86% 29.87 in 1.8 mi Calm Calm - 0.01 in Snow Light Snow
4:25 AM 19.4 °F - 17.6 °F 93% 29.86 in 1.0 mi Calm Calm - 0.01 in Snow Light Snow
4:35 AM 19.4 °F 14.3 °F 17.6 °F 93% 29.86 in 1.5 mi ENE 3.5 mph - 0.02 in Snow Light Snow
4:53 AM 19.9 °F - 17.1 °F 89% 29.88 in 1.8 mi Calm Calm - 0.03 in Snow Light Snow
5:01 AM 19.4 °F 14.3 °F 17.6 °F 93% 29.86 in 1.2 mi ENE 3.5 mph - 0.00 in Snow Light Snow
5:24 AM 19.4 °F 14.3 °F 17.6 °F 93% 29.85 in 0.8 mi ENE 3.5 mph - 0.02 in Snow Light Snow
5:34 AM 21.2 °F 14.9 °F 17.6 °F 86% 29.85 in 1.2 mi ENE 4.6 mph - 0.02 in Snow Light Snow
5:53 AM 21.0 °F 16.2 °F 18.0 °F 88% 29.87 in 1.5 mi ENE 3.5 mph - 0.02 in Snow Light Snow
6:17 AM 21.2 °F - 19.4 °F 93% 29.85 in 2.0 mi Calm Calm - N/A Snow Light Snow
6:53 AM 21.2 °F 14.9 °F 19.4 °F 93% 29.84 in 2.0 mi ENE 4.6 mph - N/A Snow Light Snow
7:19 AM 21.2 °F 16.4 °F 19.4 °F 93% 29.83 in 1.8 mi East 3.5 mph - 0.00 in Snow Light Snow
7:44 AM 23.0 °F - 21.2 °F 93% 29.83 in 0.8 mi Calm Calm - 0.01 in Snow Light Snow
7:53 AM 23.0 °F - 21.0 °F 92% 29.86 in 0.5 mi Calm Calm - 0.02 in Fog , Snow Snow
7:58 AM 24.8 °F - 21.2 °F 86% 29.83 in 1.0 mi Calm Calm - 0.00 in Snow Light Snow
8:03 AM 23.0 °F - 21.2 °F 93% 29.83 in 1.5 mi Calm Calm - 0.00 in Snow Light Snow
8:26 AM 24.8 °F 20.5 °F 21.2 °F 86% 29.82 in 1.2 mi ENE 3.5 mph - N/A Snow Light Snow
8:35 AM 24.8 °F - 21.2 °F 86% 29.82 in 2.0 mi Calm Calm - 0.00 in Snow Light Snow
8:53 AM 24.1 °F 18.2 °F 21.9 °F 91% 29.85 in 1.8 mi NNE 4.6 mph - 0.01 in Snow Light Snow
9:02 AM 24.8 °F 19.1 °F 21.2 °F 86% 29.81 in 2.0 mi NE 4.6 mph - 0.00 in Snow Light Snow
9:51 AM 24.8 °F 16.9 °F 21.2 °F 86% 29.82 in 1.2 mi NNE 6.9 mph - 0.00 in   Overcast
9:53 AM 25.0 °F 17.1 °F 21.9 °F 88% 29.85 in 1.2 mi NNE 6.9 mph - 0.00 in   Overcast
10:07 AM 24.8 °F 16.9 °F 23.0 °F 93% 29.81 in 0.8 mi NE 6.9 mph - N/A   Overcast
10:53 AM 26.1 °F 17.6 °F 24.1 °F 92% 29.81 in 0.5 mi ENE 8.1 mph - 0.00 in Fog , Snow Light Snow
11:10 AM 26.6 °F 19.1 °F 24.8 °F 93% 29.77 in 0.8 mi NE 6.9 mph - 0.00 in   Overcast
11:53 AM 26.1 °F 18.4 °F 25.0 °F 96% 29.76 in 0.5 mi NE 6.9 mph - 0.00 in Fog , Snow Light Snow
12:35 PM 26.6 °F 17.5 °F 24.8 °F 93% 29.69 in 1.0 mi NE 9.2 mph - 0.02 in Snow Light Snow
12:42 PM 26.6 °F 16.8 °F 24.8 °F 93% 29.69 in 1.0 mi NE 10.4 mph - 0.02 in Snow Light Snow
12:53 PM 27.0 °F 17.3 °F 25.0 °F 92% 29.70 in 1.2 mi NE 10.4 mph - 0.02 in Snow Light Snow
1:50 PM 28.4 °F 18.5 °F 24.8 °F 86% 29.61 in 1.5 mi ENE 11.5 mph - 0.01 in   Overcast
1:53 PM 28.0 °F 18.6 °F 25.0 °F 88% 29.63 in 1.8 mi ENE 10.4 mph - 0.01 in   Overcast
2:25 PM 28.4 °F 18.5 °F 24.8 °F 86% 29.59 in 1.0 mi ENE 11.5 mph - 0.01 in Snow Light Snow
2:36 PM 26.6 °F 16.8 °F 24.8 °F 93% 29.58 in 0.8 mi ENE 10.4 mph - 0.01 in Snow Light Snow
2:53 PM 27.0 °F 18.0 °F 25.0 °F 92% 29.59 in 0.8 mi NE 9.2 mph - 0.02 in Snow Light Snow
3:02 PM 26.6 °F 16.2 °F 24.8 °F 93% 29.55 in 1.0 mi ENE 11.5 mph - 0.00 in Snow Light Snow
3:33 PM 28.4 °F 19.1 °F 24.8 °F 86% 29.53 in 1.5 mi ENE 10.4 mph - 0.01 in   Overcast
3:44 PM 28.4 °F 19.1 °F 24.8 °F 86% 29.52 in 1.2 mi NE 10.4 mph - 0.01 in Snow Light Snow
3:53 PM 28.0 °F 18.6 °F 26.1 °F 92% 29.54 in 1.2 mi NE 10.4 mph - 0.01 in   Overcast
4:07 PM 28.4 °F 19.1 °F 26.6 °F 93% 29.51 in 1.0 mi ENE 10.4 mph - 0.01 in Rain Light Freezing Rain
4:38 PM 28.4 °F 18.0 °F 26.6 °F 93% 29.48 in 1.5 mi NE 12.7 mph - 0.01 in Rain Light Freezing Rain
4:53 PM 28.0 °F 17.5 °F 26.1 °F 92% 29.49 in 2.5 mi ENE 12.7 mph - 0.01 in Rain Light Freezing Rain
5:08 PM 28.4 °F 18.5 °F 26.6 °F 93% 29.45 in 2.5 mi ENE 11.5 mph - 0.00 in   Overcast
5:53 PM 28.0 °F 19.3 °F 26.1 °F 92% 29.44 in 2.0 mi NE 9.2 mph - 0.00 in   Overcast
5:58 PM 28.4 °F 20.4 °F 26.6 °F 93% 29.42 in 1.5 mi NE 8.1 mph - N/A   Overcast
6:06 PM 28.4 °F 19.1 °F 26.6 °F 93% 29.41 in 1.2 mi NE 10.4 mph - N/A   Overcast
6:53 PM 30.0 °F 20.0 °F 28.0 °F 92% 29.37 in 1.2 mi NE 12.7 mph - N/A   Overcast
7:14 PM 30.2 °F 20.2 °F 28.4 °F 93% 29.33 in 1.8 mi ENE 12.7 mph - 0.00 in Rain Light Freezing Rain
7:53 PM 30.9 °F 22.2 °F 30.0 °F 96% 29.30 in 1.5 mi ENE 10.4 mph - 0.02 in Rain Light Freezing Rain
8:07 PM 30.2 °F 21.3 °F 30.2 °F 100% 29.27 in 2.0 mi ENE 10.4 mph - 0.01 in Rain Light Freezing Rain
8:20 PM 30.2 °F 21.3 °F 30.2 °F 100% 29.26 in 1.8 mi ENE 10.4 mph - 0.05 in Rain Light Freezing Rain
8:32 PM 32.0 °F 23.6 °F 30.2 °F 93% 29.24 in 2.0 mi ENE 10.4 mph - 0.09 in Rain Light Freezing Rain
8:53 PM 32.0 °F 25.6 °F 30.0 °F 92% 29.24 in 3.0 mi ENE 6.9 mph - 0.10 in Rain Light Freezing Rain
9:05 PM 32.0 °F 24.2 °F 30.2 °F 93% 29.21 in 3.0 mi NE 9.2 mph - 0.00 in   Overcast
9:33 PM 32.0 °F 26.4 °F 30.2 °F 93% 29.20 in 2.5 mi NE 5.8 mph - 0.01 in   Overcast
9:53 PM 32.0 °F 27.5 °F 30.9 °F 96% 29.21 in 3.0 mi East 4.6 mph - 0.01 in   Overcast
9:57 PM 32.0 °F 27.5 °F 30.2 °F 93% 29.18 in 2.5 mi East 4.6 mph - 0.00 in   Overcast
10:31 PM 35.6 °F 24.5 °F 32.0 °F 87% 29.17 in 4.0 mi SW 20.7 mph 29.9 mph 0.00 in   Overcast
10:50 PM 41.0 °F 30.9 °F 35.6 °F 81% 29.17 in 7.0 mi SW 24.2 mph 38.0 mph 0.00 in   Overcast
10:53 PM 41.0 °F 30.0 °F 36.0 °F 82% 29.18 in 8.0 mi SW 28.8 mph 39.1 mph 0.00 in   Overcast
11:33 PM 39.2 °F 27.8 °F 33.8 °F 81% 29.18 in 10.0 mi SSW 27.6 mph 51.8 mph N/A   Overcast
11:53 PM 39.0 °F 25.3 °F 32.0 °F 76% 29.21 in 10.0 mi SW 42.6 mph 54.1 mph N/A   Overcast